W3EX Weather Reports


time (UTC)temp
C
wind
direction
speed
KPH
gust
KPH
rain 1hr
cm
rain 24hr
cm
rain mn
cm
humidity
%
barometer
mb
20260510103104 10 15 0.0 0.0 0.00 0.53 0.03 96 1008.5
20260510101502 10 15 0.0 0.0 0.00 0.53 0.03 96 1008.4
20260510100113 10 15 0.0 3.2 0.00 0.53 0.03 96 1008.2
20260510094603 10 15 0.0 3.2 0.00 0.53 0.03 96 1008.3
20260510093002 10 15 0.0 0.0 0.00 0.53 0.03 96 1008.0
20260510091502 10 15 0.0 0.0 0.00 0.53 0.03 96 1007.7
20260510090129 10 15 0.0 1.6 0.00 0.53 0.03 96 1007.8
20260510084502 10 15 0.0 3.2 0.00 0.53 0.03 96 1008.2
20260510083114 10 15 0.0 3.2 0.00 0.53 0.03 96 1008.3
20260510081509 10 26 1.6 8.0 0.00 0.53 0.03 96 1008.2
20260510080103 9 27 0.0 8.0 0.00 0.53 0.03 96 1007.7
20260510074507 9 13 0.0 0.0 0.00 0.53 0.03 96 1007.4
20260510073105 9 13 0.0 0.0 0.00 0.53 0.03 96 1007.3
20260510071502 8 13 0.0 0.0 0.00 0.53 0.03 95 1007.3
20260510070003 8 13 0.0 0.0 0.00 0.53 0.03 95 1007.3
20260510064612 8 13 0.0 3.2 0.00 0.53 0.03 95 1007.4
20260510063006 8 15 0.0 3.2 0.00 0.53 0.03 95 1007.3
20260510061602 9 207 0.0 0.0 0.03 0.53 0.03 95 1007.1
20260510060009 9 207 0.0 0.0 0.03 0.53 0.03 95 1007.0
20260510054604 9 207 0.0 0.0 0.03 0.53 0.03 95 1007.2
20260510053004 9 207 0.0 0.0 0.03 0.53 0.03 95 1007.2
20260510051503 9 207 0.0 0.0 0.00 0.51 0.00 95 1007.2
20260510050114 9 207 0.0 0.0 0.00 0.51 0.00 95 1007.4
20260510044506 9 207 0.0 0.0 0.00 0.51 0.00 95 1007.5
20260510043103 9 207 0.0 0.0 0.00 0.51 0.00 95 1007.5
20260510041502 9 207 0.0 0.0 0.00 0.51 0.00 95 1007.6
20260510034502 8 207 0.0 0.0 0.00 0.51 0.51 94 1007.6
20260510033002 8 207 0.0 0.0 0.00 0.51 0.51 94 1007.5
20260510031610 9 207 0.0 0.0 0.00 0.51 0.51 93 1007.4
20260510030002 9 207 0.0 0.0 0.00 0.51 0.51 93 1007.2
20260510024602 10 207 0.0 0.0 0.00 0.51 0.51 93 1007.2
20260510023002 10 207 0.0 0.0 0.00 0.51 0.51 93 1007.2
20260510021603 10 207 0.0 0.0 0.00 0.51 0.51 92 1007.0
20260510020003 10 207 0.0 0.0 0.00 0.51 0.51 92 1007.0
20260510014604 10 207 0.0 0.0 0.00 0.51 0.51 92 1007.0
20260510013002 11 207 0.0 0.0 0.03 0.51 0.51 91 1006.9
20260510011604 11 207 0.0 0.0 0.03 0.51 0.51 91 1006.8
20260510010002 11 207 0.0 0.0 0.03 0.51 0.51 90 1006.7
20260510004602 12 207 0.0 0.0 0.03 0.51 0.51 89 1006.5
20260510003003 12 207 0.0 0.0 0.00 0.48 0.48 89 1006.5
20260510001603 12 207 0.0 0.0 0.00 0.48 0.48 89 1006.3
20260510000002 13 206 0.0 3.2 0.00 0.48 0.48 88 1006.2
20260509234630 13 207 0.0 3.2 0.00 0.48 0.48 87 1006.4
20260509233008 14 211 1.6 6.4 0.03 0.48 0.48 87 1006.3
20260509231613 14 199 0.0 4.8 0.03 0.48 0.48 86 1006.3
20260509230002 15 207 0.0 3.2 0.03 0.48 0.48 84 1006.2
20260509224605 15 213 1.6 6.4 0.03 0.48 0.48 82 1006.2
20260509223004 15 196 0.0 4.8 0.00 0.46 0.46 84 1006.3
20260509221602 15 199 1.6 3.2 0.03 0.46 0.46 85 1006.2
20260509220004 14 215 0.0 3.2 0.03 0.46 0.46 88 1005.9
20260509214602 14 217 0.0 3.2 0.03 0.46 0.46 85 1006.1
20260509213003 14 360 0.0 3.2 0.05 0.46 0.46 86 1006.1
20260509211604 13 15 1.6 4.8 0.03 0.43 0.43 85 1006.5
20260509210003 14 338 0.0 6.4 0.05 0.43 0.43 90 1006.3
20260509204602 13 19 1.6 3.2 0.05 0.43 0.43 89 1006.3
20260509203002 13 355 0.0 3.2 0.05 0.41 0.41 90 1006.3
20260509201604 12 5 0.0 3.2 0.08 0.41 0.41 92 1006.3
20260509200002 12 13 0.0 0.0 0.08 0.38 0.38 92 1006.5
20260509194602 12 13 0.0 3.2 0.08 0.38 0.38 92 1006.8
20260509193002 12 360 0.0 3.2 0.08 0.36 0.36 92 1007.0
20260509191602 12 360 0.0 4.8 0.10 0.33 0.33 91 1007.3
20260509190002 12 47 1.6 9.7 0.10 0.30 0.30 91 1007.4
20260509184611 12 9 3.2 6.4 0.13 0.30 0.30 92 1007.7
20260509183003 12 51 0.0 4.8 0.13 0.25 0.25 91 1007.6
20260509181608 12 28 1.6 4.8 0.13 0.23 0.23 90 1007.8
20260509180001 12 342 0.0 4.8 0.13 0.20 0.20 89 1008.0
20260509174602 13 344 0.0 4.8 0.13 0.18 0.18 88 1007.9
20260509173002 13 16 3.2 4.8 0.10 0.13 0.13 88 1007.7
20260509171603 13 326 0.0 3.2 0.10 0.10 0.10 87 1007.5
20260509170002 13 5 0.0 3.2 0.08 0.08 0.08 85 1007.7
20260509164610 14 321 0.0 3.2 0.05 0.05 0.05 84 1007.7
20260509163004 14 252 0.0 4.8 0.03 0.03 0.03 80 1007.9
20260509161603 15 175 3.2 8.0 0.00 0.00 0.00 78 1008.1
20260509160003 15 332 3.2 14.5 0.00 0.00 0.00 76 1008.0
20260509154620 15 201 4.8 16.1 0.00 0.00 0.00 74 1008.5
20260509153103 16 203 1.6 8.0 0.00 0.00 0.00 75 1008.2
20260509151503 16 205 3.2 14.5 0.00 0.00 0.00 73 1008.2
20260509150112 15 5 4.8 12.9 0.00 0.00 0.00 74 1008.3
20260509144502 15 234 3.2 8.0 0.00 0.00 0.00 75 1008.1
20260509143108 15 292 1.6 6.4 0.00 0.00 0.00 76 1008.2
20260509141502 15 186 3.2 8.0 0.00 0.00 0.00 77 1008.1
20260509140106 14 360 0.0 4.8 0.00 0.00 0.00 78 1007.9
20260509134502 14 223 0.0 6.4 0.00 0.00 0.00 78 1008.0
20260509133108 13 202 3.2 8.0 0.00 0.00 0.00 78 1007.9
20260509131503 13 212 0.0 8.0 0.00 0.00 0.00 78 1007.9
20260509124502 13 196 1.6 6.4 0.00 0.00 0.00 79 1008.0
20260509123106 12 201 0.0 3.2 0.00 0.00 0.00 79 1008.1
20260509121610 12 202 0.0 3.2 0.00 0.00 0.00 79 1008.1
20260509120003 12 202 0.0 0.0 0.00 0.00 0.00 79 1008.1
20260509114609 12 202 0.0 1.6 0.00 0.00 0.00 79 1008.1
20260509113002 12 202 0.0 1.6 0.00 0.00 0.00 78 1008.0
20260509111502 12 202 0.0 3.2 0.00 0.00 0.00 77 1008.0
20260509110103 12 202 0.0 3.2 0.00 0.00 0.00 77 1008.0
20260509104602 12 211 1.6 4.8 0.00 0.00 0.00 76 1008.0